Orbital Elements at Epoch 2459200.5 (2020-Dec-17.0) TDB
Reference: JPL 16 (heliocentric ecliptic J2000)
Element | Value | Uncertainty (1-sigma) | Units |
e | .02531770664026268 | 4.6893e-08 | |
a | 2.631359255136938 | 1.6681e-08 | au |
q | 2.564739273450241 | 1.1652e-07 | au |
i | 4.588297200415184 | 4.2108e-06 | deg |
node | 77.79712054896618 | 5.3855e-05 | deg |
peri | 112.8893344933544 | 9.6206e-05 | deg |
M | 184.1329129876873 | 8.081e-05 | deg |
tp | 2459962.141701801017 (2023-Jan-17.64170180) | 0.00035203 | TDB |
period | 1559.080879239043 4.27 | 1.4826e-05 4.059e-08 | d yr |
n | .2309052755336906 | 2.1957e-09 | deg/d |
Q | 2.697979236823635 | 1.7104e-08 | au |
|
| | Orbit Determination Parameters
Additional Information
|